Location: Alsip
(41.6689°N, 87.7387°W)
Time: 14:19:30
(UTC+00:00)

Cosmos 2278 - Pass Details

Date: 14 July 2020
Orbit: 838 x 854 km, 71.1° (Epoch: 04 August)

Event Time Altitude Azimuth Distance (km) Brightness Sun altitude
Rises 08:49:20 0° 332° (NNW) 3,431 7.2 -15.2°
Reaches altitude 10° 08:51:49 10° 329° (NNW) 2,492 6.4 -14.9°
Maximum altitude 08:57:26 60° 251° (WSW) 973 3.7 -14.2°
Drops below altitude 10° 09:03:01 10° 173° (S) 2,473 5.8 -13.5°
Sets 09:05:29 0° 169° (S) 3,403 6.5 -13.2°
